Vertical_Velocity
-9 -16 -5 27 -3 -4 6 -2 -3 2 8 0 -13 -1 1 1 -11 3 1 13 1 -4 3 0 -4 1 -0 -2 -2 -2 -9 11 3 -3 -2 -0 -3 -0 -3 1 -1 2 2 -1
8 -62 33 -6 -1 -7 0 2 -8 4 13 -1 2 -4 -5 -6 2 7 5 0 2 2 1 0 -4 -1 -2 3 1 -6 -5 8 9 -3 -0 -2 2 -1 -2 4 0 -2 2 1
-6 -10 2 -5 0 -0 1 -9 13 -5 11 -14 1 -8 -0 15 -9 -1 5 7 2 1 -1 -1 -3 -1 4 2 -1 2 1 -7 5 4 -1 -2 0 -1 1 0 3 -2 2 1
-24 10 -1 7 -7 3 -9 17 5 3 -3 -6 9 -13 -6 2 6 3 4 -2 -4 -13 -4 1 0 1 1 0 -1 4 -0 -8 9 0 1 -2 -2 1 -1 -1 1 2 -1 -1
-17 -4 -2 -3 -3 20 -11 1 1 5 -6 0 -2 -11 4 9 2 9 -1 -2 -2 2 -3 -1 1 2 1 -4 0 5 2 -0 11 -0 -2 -4 -1 1 -1 0 -0 -0 -1 -0
-12 8 -2 2 7 4 -5 21 1 3 1 -32 10 -3 -6 6 9 14 -10 8 -9 -13 1 4 -1 4 1 0 -7 -1 6 -5 13 -4 -5 -2 2 -3 -2 0 -1 -0 -1 -2
22 5 0 1 3 -9 19 -5 12 -1 -18 -0 4 7 -6 14 1 3 9 -6 -13 -8 5 -2 -3 -4 3 1 -8 4 5 -11 15 -4 -4 -3 -1 -4 -3 9 1 -2 2 2
4 -9 5 7 -15 7 -1 3 -2 3 1 -1 4 -16 3 18 2 5 9 -6 -8 -1 12 -4 19 9 3 -10 -1 7 -2 -0 -0 1 3 -4 6 -1 -1 2 -2 1 -0 2
-0 -2 18 8 1 7 -9 -11 30 5 -3 -8 7 6 -30 -1 50 9 0 -7 -13 15 3 4 5 -1 -7 -10 7 -3 0 -2 -2 2 -1 2 -2 1 2 2 -3 -1 0 0
9 -18 1 15 -1 54 17 21 -8 -4 7 1 21 9 32 24 13 -10 -6 -10 4 -1 4 4 -3 5 9 15 -6 -1 -2 -3 -2 -3 -1 1 -0 0 2 1 1 2 -2 -1
-5 -1 10 9 -4 -18 -17 1 -12 8 -3 2 -0 12 23 36 18 4 -1 -1 6 -1 2 3 -1 -2 3 5 4 1 -3 -3 2 2 1 4 -0 1 -0 3 1 -0 -3 -1
-0 -8 -1 16 19 16 -1 7 9 -1 4 1 14 14 38 -3 20 8 -8 0 2 4 5 2 -3 -2 5 -3 -0 -1 -3 0 7 4 0 1 3 -1 -0 4 0 -3 -1 -0
-3 -4 -3 25 -17 -17 -12 0 5 11 5 2 10 8 16 2 -11 -3 7 -1 4 3 2 4 -2 -3 2 -2 2 -1 1 3 0 2 2 -2 3 -3 1 3 1 -4 3 -3
-0 4 -2 25 15 23 -1 -2 -3 -3 4 11 30 43 3 -18 3 7 5 -3 -1 2 2 -2 1 -2 -1 1 0 2 -0 -2 0 4 7 -1 -1 1 2 4 1 -2 4 0
5 -0 7 8 6 12 9 5 40 46 5 6 7 -7 -9 -7 -2 5 -0 -1 1 -0 -1 0 -1 1 0 3 0 0 2 -1 3 6 6 -1 -3 2 3 3 0 -1 0 -2
2 2 11 62 55 5 26 43 16 6 -14 -12 -4 -27 -1 0 15 -5 3 -0 2 -1 0 -1 -2 1 1 1 1 -0 -2 -2 -2 3 9 -2 -3 1 2 2 2 1 2 -1
1 42 2 10 5 4 -6 2 -6 -9 1 1 -4 3 -4 2 2 0 2 3 -0 -2 -2 -2 -3 -4 -0 -1 1 -1 1 9 7 11 1 0 1 2 2 0 -0 -1 0 3
-9 42 13 17 9 -4 -2 -4 1 -2 -5 -6 -5 -2 -5 1 -2 2 -2 -3 -3 -2 -1 -0 -1 -1 -1 -1 -0 1 -1 0 2 9 -5 0 0 3 1 1 1 -2 1 0
-8 -6 -2 -4 -0 -2 -2 -1 -5 -5 -3 -3 -2 -2 -1 1 3 -1 -2 0 1 -0 -1 -0 -1 -1 -0 1 0 -1 -3 -2 3 1 -2 -2 -0 3 3 2 1 0 -0 -0
5 5 -2 2 -2 -9 0 -7 -3 -1 -2 -0 0 -0 -0 -2 1 0 0 2 1 -1 -0 -2 -1 -1 0 1 3 -1 1 3 -3 -2 1 -1 -2 -3 0 0 2 3 2 1
3 -0 3 -0 0 -4 -1 -1 -1 -1 -6 -0 -0 0 -4 -2 1 1 2 2 1 1 -1 -1 -0 1 1 -2 2 -1 21 -0 1 -2 1 1 1 0 -1 -0 1 0 2 5
1 -0 -3 -2 -2 0 3 1 -1 -1 2 2 1 1 -2 -3 -1 1 0 1 0 -0 -3 -0 -2 -1 0 -4 4 3 8 17 49 93 -13 12 2 -1 2 10 0 2 4 4
3 -0 1 3 1 -1 2 -1 0 -1 -0 1 1 -1 1 1 -2 -1 -0 0 -1 -0 -1 -2 -1 3 5 4 8 9 9 31 39 0 38 10 7 19 5 1 -1 -2 4 1
4 3 3 2 -2 -1 -2 -0 -3 -0 1 -0 0 1 3 3 3 3 3 2 1 1 1 1 -1 -3 -1 -4 6 7 14 18 6 22 6 9 16 2 -2 4 18 37 13 -4
-3 -4 -3 -1 -1 -3 -4 -2 -0 -3 -0 0 0 1 1 0 1 1 -0 -0 0 1 0 0 -1 1 1 0 0 -3 1 2 12 12 13 17 20 18 23 12 6 2 2 3
-1 -1 -2 -5 -3 -2 -1 4 1 -3 0 1 0 -0 -1 -1 -1 -0 -0 -0 1 -0 1 1 -0 1 0 -1 -1 3 7 4 0 -4 -7 3 14 12 16 16 13 10 24 20
Height
5641 5642 5648 5647 5642 5643 5643 5642 5644 5650 5649 5647 5644 5646 5651 5660 5663 5670 5675 5683 5686 5691 5694 5698 5701 5706 5711 5715 5717 5719 5722 5728 5726 5726 5727 5727 5726 5726 5727 5728 5728 5727 5727 5727
5627 5626 5635 5627 5628 5627 5628 5630 5635 5636 5638 5634 5636 5636 5638 5646 5657 5662 5668 5673 5677 5682 5685 5690 5693 5698 5703 5707 5709 5710 5712 5718 5718 5718 5719 5717 5717 5719 5720 5722 5721 5720 5720 5721
5605 5615 5610 5609 5612 5612 5614 5618 5622 5624 5626 5625 5625 5626 5631 5645 5646 5650 5657 5664 5668 5672 5675 5680 5684 5690 5694 5697 5701 5703 5704 5708 5710 5711 5709 5708 5710 5711 5714 5716 5715 5713 5714 5715
5589 5592 5591 5593 5595 5598 5599 5609 5609 5612 5614 5616 5619 5615 5627 5636 5640 5642 5647 5654 5657 5660 5666 5672 5677 5681 5685 5689 5693 5694 5697 5698 5700 5702 5700 5701 5703 5705 5707 5708 5708 5707 5708 5708
5574 5572 5575 5576 5582 5593 5591 5599 5599 5602 5605 5606 5610 5611 5620 5628 5632 5635 5640 5643 5647 5654 5658 5664 5668 5673 5676 5679 5682 5685 5690 5690 5692 5693 5692 5693 5696 5699 5700 5700 5700 5701 5702 5702
5555 5560 5560 5564 5571 5579 5587 5589 5592 5594 5597 5597 5603 5606 5610 5620 5628 5630 5624 5637 5639 5644 5650 5656 5660 5665 5668 5672 5674 5675 5681 5679 5683 5683 5683 5687 5690 5691 5692 5693 5694 5695 5696 5695
5547 5548 5551 5555 5557 5567 5576 5581 5586 5588 5589 5591 5599 5602 5604 5614 5616 5620 5625 5626 5630 5637 5644 5648 5653 5656 5660 5663 5666 5668 5671 5670 5675 5675 5677 5681 5684 5683 5684 5687 5688 5689 5689 5688
5537 5539 5543 5546 5549 5557 5566 5573 5580 5583 5588 5590 5594 5595 5601 5606 5612 5614 5614 5618 5622 5630 5637 5641 5645 5649 5651 5654 5657 5661 5660 5661 5666 5669 5672 5674 5676 5677 5677 5680 5681 5681 5681 5681
5529 5533 5537 5540 5546 5553 5559 5565 5579 5581 5583 5588 5589 5596 5597 5606 5607 5606 5611 5610 5615 5624 5628 5631 5635 5637 5641 5646 5649 5650 5651 5654 5658 5663 5665 5668 5670 5671 5672 5675 5674 5674 5674 5672
5526 5523 5531 5535 5539 5546 5555 5566 5570 5575 5582 5585 5586 5591 5595 5594 5598 5599 5602 5606 5612 5615 5620 5623 5626 5631 5636 5638 5638 5640 5644 5647 5652 5656 5660 5662 5664 5665 5668 5669 5668 5668 5667 5665
5523 5524 5529 5531 5537 5544 5553 5559 5565 5571 5576 5581 5584 5590 5590 5587 5588 5589 5595 5601 5606 5608 5612 5616 5619 5623 5627 5630 5632 5636 5638 5643 5647 5651 5653 5657 5658 5661 5663 5664 5664 5663 5661 5659
5519 5520 5523 5531 5539 5544 5551 5558 5562 5565 5573 5578 5582 5588 5576 5577 5585 5585 5590 5596 5600 5602 5605 5610 5613 5617 5621 5623 5627 5631 5634 5639 5643 5645 5648 5652 5654 5657 5658 5659 5659 5658 5656 5654
5518 5520 5521 5527 5535 5541 5546 5553 5559 5564 5568 5574 5577 5580 5575 5577 5577 5583 5589 5592 5594 5596 5598 5604 5607 5610 5614 5619 5623 5626 5631 5635 5637 5640 5643 5646 5649 5652 5653 5654 5655 5654 5653 5651
5511 5518 5521 5524 5535 5542 5544 5550 5555 5561 5565 5569 5573 5571 5567 5571 5577 5582 5584 5586 5588 5590 5592 5597 5601 5604 5608 5613 5617 5621 5625 5628 5630 5634 5637 5640 5644 5646 5648 5650 5651 5650 5650 5648
5512 5514 5517 5522 5528 5538 5543 5548 5553 5554 5560 5564 5564 5562 5563 5568 5576 5580 5580 5581 5583 5585 5587 5591 5595 5599 5602 5607 5611 5615 5620 5622 5625 5627 5630 5634 5639 5642 5644 5645 5646 5647 5646 5647
5516 5522 5520 5524 5530 5536 5542 5546 5546 5551 5554 5557 5561 5560 5565 5569 5575 5573 5575 5577 5578 5581 5582 5585 5589 5593 5596 5600 5604 5608 5612 5614 5618 5622 5624 5629 5633 5636 5639 5640 5641 5643 5643 5644
5518 5523 5525 5527 5531 5536 5540 5544 5546 5551 5556 5558 5560 5562 5565 5567 5568 5569 5570 5571 5573 5575 5578 5579 5582 5586 5589 5593 5597 5601 5605 5607 5612 5615 5618 5623 5628 5630 5632 5634 5636 5637 5639 5640
5520 5520 5525 5528 5531 5537 5541 5544 5549 5552 5555 5556 5558 5559 5560 5563 5563 5563 5565 5566 5568 5570 5572 5573 5575 5578 5582 5584 5589 5593 5596 5600 5603 5608 5611 5616 5620 5623 5625 5628 5630 5632 5635 5636
5520 5524 5527 5531 5535 5539 5543 5545 5548 5551 5554 5554 5555 5555 5556 5557 5558 5559 5560 5561 5563 5564 5567 5568 5569 5570 5572 5576 5580 5585 5588 5592 5597 5600 5604 5607 5613 5616 5619 5621 5624 5626 5628 5630
5521 5526 5530 5533 5537 5540 5543 5545 5548 5549 5551 5552 5552 5552 5553 5554 5554 5555 5555 5556 5558 5560 5561 5562 5563 5563 5565 5568 5572 5575 5579 5584 5588 5592 5597 5600 5604 5607 5610 5613 5616 5618 5620 5622
5523 5527 5531 5534 5537 5540 5542 5545 5547 5548 5551 5549 5549 5549 5549 5549 5550 5550 5551 5552 5553 5554 5556 5557 5557 5557 5558 5560 5564 5567 5569 5575 5581 5585 5589 5592 5596 5598 5601 5604 5606 5609 5611 5614
5525 5528 5532 5533 5537 5540 5541 5543 5545 5545 5545 5545 5545 5545 5545 5545 5545 5546 5547 5547 5548 5549 5551 5551 5550 5550 5551 5552 5554 5557 5559 5563 5566 5564 5578 5583 5586 5589 5592 5595 5597 5599 5601 5603
5528 5530 5533 5535 5537 5539 5539 5540 5541 5541 5541 5542 5542 5542 5542 5541 5541 5541 5542 5542 5543 5543 5543 5544 5545 5545 5545 5545 5545 5548 5550 5553 5555 5563 5565 5570 5575 5578 5581 5583 5584 5586 5587 5591
5529 5530 5532 5535 5536 5536 5537 5537 5538 5538 5538 5539 5540 5540 5539 5539 5538 5537 5537 5537 5537 5536 5537 5538 5539 5541 5540 5541 5541 5541 5540 5542 5548 5551 5556 5558 5561 5565 5567 5570 5572 5568 5573 5578
5530 5532 5533 5534 5534 5535 5534 5534 5534 5535 5535 5536 5537 5537 5537 5537 5536 5535 5535 5534 5533 5533 5534 5534 5535 5536 5536 5537 5537 5538 5537 5538 5539 5541 5544 5546 5547 5551 5551 5554 5557 5558 5559 5563
5527 5529 5531 5532 5532 5532 5531 5531 5531 5533 5533 5534 5535 5535 5535 5535 5535 5535 5534 5533 5532 5531 5531 5531 5531 5531 5530 5531 5531 5531 5531 5532 5534 5536 5537 5538 5538 5539 5538 5541 5540 5543 5546 5548